LUDI TANCE-4 01A

Last updated on Thu Oct 30 2025 00:02:52 GMT+0000 (Coordinated Universal Time)

1 57624U 23120A 25302.71295822 -.00000182 00000+0 00000+0 0 9990 2 57624 15.2687 199.6847 0005310 67.6769 117.3505 1.00269868 8234
UTC large
Height (km)
Speed (km/s)
/
Latitude / Longitude
Inclination (degrees)
Orbital Period (minutes)
Azimuth
Elevation
Range (km)
Doppler Factor

Next 0 passes for location: London (51.5072 / 0.1276)

Sorry there are no passes over London.